Tracking 28790 objects as of 19-Apr-2024
HD Live streaming from Space Station
objects crossing your sky now

ATLAS CENTAUR R/B

Track ATLAS CENTAUR R/B now!


NORAD ID: 4882
Int'l Code: 1971-006B
Perigee: 736.3 km
Apogee: 36,358.2 km
Inclination: 27.6 °
Period: 652.4 minutes
Semi major axis: 24918 km
RCS: 15.787 m2 (large)
Launch date: January 26, 1971
Source: United States (US)
Launch site: AIR FORCE EASTERN TEST RANGE (AFETR)

Note: This is a ROCKET BODY
Your satellite tracking list
Your tracking list is empty




NASA's NSSDC Master Catalog

Two Line Element Set (TLE):
1 04882U 71006B   24109.61351109  .00000000  00000-0  17465-2 0  9993
2 04882  27.6241 149.3705 7147746   3.0512 134.6562  2.20712436425759
Source of the keplerian elements: AFSPC